Погода в Боготоле

Погода в Боготоле : погода сейчас, прогноз погоды и архив. Всё, что Вы хотите узнать о погоде в Боготоле!

Хотите узнать прогноз погоды в Боготоле? Тогда Вам сюда: Погода в Боготоле

Поиск расширенной информации на нашем сайте:

Полезная информация: Что такое внутренний подтягивающий резистор.

Другие новости

Новости СМИ2

Главная страница сайта

Новости сайта

03.07.2017

Напоминаем, что на нашем специализированном сайте Метеоцентр.Азия вы можете получить высокодетализированные автоматические прогнозы погоды по пунктам России, СНГ и мира в авиационном формате (включающие направление и скорость ветра, видимость, явления погоды, количество и форму облачности, нижнюю и верхнюю границу облачности).

Рекомендуем: автополив газона

Погода в Боготоле - сегодня

Время (UTC), дата Ветер
(°,м/с) 
Видим.   Явления Облачность Т
(°С)
Тd
(°С)
f(%) Тe
(°С)
Pmin
(гПа)
dP
(гПа)
Po
(мм)
O2
(г/м3)
Тmin Tmax R s Состояние
почвы
21 19.02.18 230 (ЮЗ) 4000 м  слаб. снег  10/0 средняя 
[As trans]
-12.4 -14 88 -16  1032.5  -0.8  745  316           
00 20.02.18 230 (ЮЗ) 4000 м  слаб. снег  10/0 средняя 
[As op]
-11.9 -12.8 93 -16  1032.2  -0.2  745  315  -13.9    0.5  18  равномерный
сухой снег
100% 
12 20.02.18 240 (ЮЗ) 4000 м  слаб. снег{ливн. осадки}  10/0 средняя 
[As trans]
-9.2 -9.6 97 -11  1031.3  -0.3  745  312    -8.8     
15 20.02.18 240 (ЮЗ) 4000 м  слаб. снег  10/0 средняя 
[As trans]
-9.6 -10.3 95 -11  1030.9  -0.4  745  312           
18 20.02.18 240 (ЮЗ) 4000 м  слаб. ливневой снег  10/8 600 м кучево-дожд., средняя 
[Cb cap|As op]
-9 -9 100 -12  1029.3  -1.5  743  311           
21 20.02.18 250 (З) 10 км  дымка{ливн. осадки}  10/5 600 м кучево-дожд., средняя 
[Cb cap|As op]
-9 -9.1 99 -11  1028.7  -0.6  743  311           
00 21.02.18 230 (ЮЗ) 4000 м  слаб. снег{ливн. осадки}  10/0 средняя 
[As trans]
-9.9 -9.9 100 -12  1028.3  -0.5  743  311  -9.9    19  равномерный
сухой снег
100% 
03 21.02.18 230 (ЮЗ) 4000 м  слаб. снег  10/0 средняя 
[As trans]
-9.6 -9.6 100 -11  1028.1  -0.2  743  311           
06 21.02.18 240 (ЮЗ) 4000 м  слаб. ливневой снег  9/6 600 м кучево-дожд., средняя, верхняя 
[Cb cap|Ac trans|Ci fib]
-7.7 -10.6 80 -10  1027.2  -0.6  742  309           
09 21.02.18 230 (ЮЗ) 20000 м  {ливн. осадки}  8/4 600 м кучево-дожд., верхняя 
[Cb cap|Ci fib]
-6.4 -11.1 69 -9  1026.3  -0.7  742  307           
12 21.02.18 тихо ()   10 км  дымка{ливн. осадки}  6/0 верхняя 
[Ci fib]
-9.4 -11.7 83 -9  1026.5  -0.2  741  310    -6.3  0.6     
15 21.02.18 тихо ()   10 км  дымка  ясно 
-13.7 -13.7 100 -14  1026.2  -0.9  741  315           
18 21.02.18 тихо ()   10 км  дымка  ясно 
-16.4 -16.6 98 -16  1025.6  -1  740  319           
21 21.02.18 040 (СВ) 10 км  дымка  ясно 
-18.6 -19.5 93 -19  1025  -0.9  739  321           
00 22.02.18 050 (СВ) 10 км  дымка  ясно 
-21.5 -23 88 -22  1024.5  -1  739  325  -22.2      19  равномерный
сухой снег
100% 
03 22.02.18 060 (СВ) 10 км  дымка  9/0 верхняя 
[Cs]
-17.8 -18.7 93 -18  1022.7  -1  738  319           
06 22.02.18 080 (В) 10 км  дымка  9/4 2000 м средняя, верхняя 
[Ac trans|Cs]
-11.2 -11.3 99 -13  1020.6  -1.1  737  311           
09 22.02.18 110 (В) 4000 м  слаб. снег  10/0 средняя 
[As trans]
-9 -10.4 90 -13  1018.8  -1.4  736  308           
12 22.02.18 120 (ЮВ) 4000 м  слаб. снег  10/0 средняя 
[As trans]
-9 -9.1 99 -12  1017.2  -1.5  735  307    -8.9  0.3     
15 22.02.18 170 (Ю) 4000 м  слаб. ливневой снег  10/10 600 м кучево-дожд. 
[Cb cap]
-8.3 -8.4 99 -10  1016  -1.1  734  306           
18 22.02.18 230 (ЮЗ) 4000 м  слаб. ливневой снег  10/8 600 м кучево-дожд., средняя 
[Cb cap|As op]
-5.9 -6 99 -10  1016.6  735  303           
00 23.02.18 230 (ЮЗ) 4{12}  20000 м  позёмок{ливн. осадки}  6/6 600 м кучево-дожд. 
[Cb cap]
-10.9 -12.8 86 -15  1021.6  1.8  738  311  -11    20  равномерный
сухой снег
100% 
12 23.02.18 200 (Ю) 20000 м  {ливн. осадки}  6/6 600 м кучево-дожд. 
[Cb cap]
-8.3 -12.3 73 -11  1021.5  -1.1  738  308    -7.6  0.0     
15 23.02.18 200 (Ю) 4000 м  слаб. снег  10/0 средняя 
[As trans]
-9.3 -10.3 92 -11  1020.8  -0.8  737  309           
18 23.02.18 250 (З) 4000 м  слаб. ливневой снег  10/8 600 м кучево-дожд., средняя 
[Cb cap|As op]
-9.9 -10.4 96 -12  1020.7  -0.2  737  309           
Время (UTC), дата Ветер
(°,м/с) 
Видим.   Явления Облачность Т
(°С)
Тd
(°С)
f(%) Тe
(°С)
Pmin
(гПа)
dP
(гПа)
Po
(мм)
O2
(г/м3)
Тmin Tmax R s Состояние
почвы

Для получения пояснительной информации подведите курсор к названию столбца.

ПОГОДА в Боготоле - архив

Всё, что Вы хотите узнать о погоде в Боготоле - удобно и подробно!

Выберите нужную дату (начиная с 1 января 2015* года) и нажмите кнопку "Найти".
Будут отображены архивные сводки погоды по пункту Боготол, начиная с указанной даты.


Отображать данные в формате CSV (для использования в таблицах Excel)


Внимание! Наш архив погоды предназначен исключительно для личного некоммерческого использования в познавательных целях. Если Вам необходимы официальные справки о состоянии погоды (для производственных, юридических, коммерческих и т.п. целей), обращайтесь в органы Росгидромета.

*Примечание: данная дата относится к архиву по метеостанциям СССР (Россия, СНГ, Балтия).
Архив по метеостанциям Зарубежной Европы и Азии (кроме Китая) хранится 10 дней, по другим регионам земного шара (Китай, Африка, Америка, Австралия, Океания) - 1 день.

Боготол - район местоположения метеостанции


Название, широта, долгота, высота метеостанции:
Боготол 56.2°ш. 89.6°д. 291 м над ур. моря [Российская Федерация]

Дополнительная информация

В oтличие oт бoльшинства пoгoдных сайтoв мы публикуем пoдрoбную метеoинфoрмацию в детальнoм прoфессиoнальнoм фoрмате.

Характеристики температуры и влажнoсти вoздуха измеряются на высoте 2 м в тени вдали oт зданий и деревьев.
Скoрoсть ветра измеряется на высoте 10 м (на урoвне рoста челoвека скoрoсть ветра ниже в 1.5-2 раза). Если метеoстанция нахoдится в гoрoде или в лесу, тo скoрoсть ветра занижена на 2-4 м/с пo сравнению с oткрытым местoм. Скoрoсть ветра над акватoриями крупных рек и oзёр, а также на вершинах хoлмoв на 2-5 м/с выше, чем в oбычных услoвиях.
Атмoсфернoе давление в разных тoчках местнoсти мoжет значительнo oтличаться oт давления на метеoстанции, в зависимoсти oт услoвий рельефа (при пoдъёме на 10 м давление пoнижается примернo на 1 мм рт.ст.).